Weather History for KYNG - May, 2013

Change the Weather History Date:

Thursday, May 16, 2013

  Actual Average Record
Temperature  
Mean Temperature 65 °F 58 °F  
Max Temperature 80 °F 69 °F 89 °F (1962)
Min Temperature 50 °F 47 °F 30 °F (1956)
Degree Days  
Heating Degree Days 0 8  
Month to date heating degree days 103 157  
Since 1 July heating degree days 6013 6184  
Cooling Degree Days 0 1  
Month to date cooling degree days 4 9  
Year to date cooling degree days 11 18  
Growing Degree Days 15 (Base 50)    
Moisture  
Dew Point 44 °F    
Average Humidity 50    
Maximum Humidity 77    
Minimum Humidity 23    
Precipitation  
Precipitation 0.00 in 0.12 in 0.90 in (1990)
Month to date precipitation 0.65 1.87  
Year to date precipitation 10.95 12.87  
Snow  
Snow 0.00 in 0.00 in - ()
Month to date snowfall T 0.0  
Since 1 July snowfall 80.9 62.7  
Snow Depth 0.00 in    
Sea Level Pressure  
Sea Level Pressure 29.87 in    
Wind  
Wind Speed 6 mph (NW)    
Max Wind Speed 21 mph    
Max Gust Speed 25 mph    
Visibility 10 miles    
Events      
T = Trace of Precipitation, MM = Missing Value Source: NWS Daily Summary

Daily Weather History Graph

Daily Weather History Graph

Search for Another Location

Airport or City:

Trip Planner

Search our weather history database for the weather conditions in past years. The results will help you decide how hot, cold, wet, or windy it might be!

Date:

Astronomy

May. 16, 2013 Rise Set
Actual Time 6:03 AM EDT 8:35 PM EDT
Civil Twilight 5:31 AM EDT 9:07 PM EDT
Nautical Twilight 4:52 AM EDT 9:46 PM EDT
Astronomical Twilight 4:08 AM EDT 10:31 PM EDT
Moon 11:36 AM EDT (5/16) 12:54 AM EDT (5/16)
Length of Visible Light 15h 35m
Length of Day
14h 32m
Waxing Crescent, 35% of the Moon is Illuminated
May 16
Waxing Crescent
May 18
First Quarter
May 25
Full
May 31
Last Quarter
Jun 8
New

Hourly Weather History & Observations

Time (EDT) Temp. Dew Point Humidity Pressure Visibility Wind Dir Wind Speed Gust Speed Precip Events Conditions
12:51 AM 55.0 °F 48.9 °F 80% 29.76 in 10.0 mi South 3.5 mph - N/A   Mostly Cloudy
1:51 AM 61.0 °F 48.0 °F 62% 29.76 in 10.0 mi Calm Calm - N/A   Overcast
2:51 AM 61.0 °F 48.9 °F 64% 29.77 in 10.0 mi NW 3.5 mph - N/A   Overcast
3:51 AM 57.9 °F 48.9 °F 72% 29.78 in 10.0 mi West 3.5 mph - N/A   Overcast
4:51 AM 57.0 °F 46.9 °F 69% 29.78 in 10.0 mi West 3.5 mph - N/A   Mostly Cloudy
5:51 AM 54.0 °F 46.9 °F 77% 29.81 in 10.0 mi Calm Calm - N/A   Scattered Clouds
6:51 AM 55.0 °F 48.0 °F 77% 29.82 in 10.0 mi SSW 3.5 mph - N/A   Scattered Clouds
7:51 AM 61.0 °F 50.0 °F 67% 29.85 in 10.0 mi WNW 4.6 mph - N/A   Scattered Clouds
8:51 AM 66.0 °F 48.9 °F 54% 29.86 in 10.0 mi NNW 3.5 mph - N/A   Scattered Clouds
9:51 AM 70.0 °F 48.0 °F 46% 29.88 in 10.0 mi NNW 5.8 mph - N/A   Partly Cloudy
10:51 AM 73.0 °F 44.1 °F 35% 29.89 in 10.0 mi WNW 5.8 mph - N/A   Partly Cloudy
11:51 AM 75.0 °F 39.0 °F 27% 29.90 in 10.0 mi NNW 11.5 mph - N/A   Scattered Clouds
12:51 PM 75.9 °F 39.9 °F 27% 29.89 in 10.0 mi North 6.9 mph - N/A   Scattered Clouds
1:51 PM 78.1 °F 39.9 °F 25% 29.88 in 10.0 mi WNW 9.2 mph 17.3 mph N/A   Scattered Clouds
2:51 PM 79.0 °F 39.0 °F 24% 29.89 in 10.0 mi NW 9.2 mph - N/A   Scattered Clouds
3:51 PM 79.0 °F 37.9 °F 23% 29.89 in 10.0 mi NNW 12.7 mph 24.2 mph N/A   Scattered Clouds
4:51 PM 79.0 °F 37.9 °F 23% 29.90 in 10.0 mi NNW 13.8 mph - N/A   Scattered Clouds
5:51 PM 78.1 °F 37.0 °F 23% 29.91 in 10.0 mi WNW 12.7 mph 18.4 mph N/A   Scattered Clouds
6:51 PM 75.9 °F 39.0 °F 26% 29.91 in 10.0 mi NNW 9.2 mph - N/A   Scattered Clouds
7:51 PM 72.0 °F 41.0 °F 33% 29.92 in 10.0 mi NNE 10.4 mph - N/A   Scattered Clouds
8:51 PM 64.0 °F 39.0 °F 40% 29.94 in 10.0 mi NE 5.8 mph - N/A   Scattered Clouds
9:51 PM 57.0 °F 41.0 °F 55% 29.96 in 10.0 mi ENE 4.6 mph - N/A   Clear
10:51 PM 55.0 °F 43.0 °F 64% 29.98 in 10.0 mi ENE 5.8 mph - N/A   Clear
11:51 PM 53.1 °F 43.0 °F 69% 29.99 in 10.0 mi Calm Calm - N/A   Scattered Clouds